Location: Hurstbourne Priors
(51.2000°N, 1.3667°W)
Time: 21:14:32
(UTC+00:00)

Altair - Pass Details

Date: 20 April 2021
Orbit: 1501 x 1683 km, 47.2° (Epoch: 13 May)

Event Time Altitude Azimuth Distance (km) Brightness Sun altitude
Rises 09:04:23 0° 268° (W) 4,823 9.7 36.3°
Reaches altitude 10° 09:07:33 10° 267° (W) 3,813 9.3 36.7°
Maximum altitude 09:17:07 70° 186° (S) 1,639 8.5 37.9°
Drops below altitude 10° 09:26:19 10° 106° (ESE) 3,680 10.6 39.1°
Sets 09:29:19 0° 104° (ESE) 4,648 10.8 39.5°
